N1QWW New Bedford MA US current weather conditions

sailwx.info

Wind from 071 at 3 knots gusting 8

Air temperature 5.0° C
Dewpoint 4.1° C

Last reported at 2020-Jan-25 14:03 UTC.
Time now 2020-Jan-25 14:41 UTC

Location: N 41°41' W 070°56'.
View on Google Maps.

See reports from other nearby stations

  
Tides and Currents Weather Stations Pressure Air Temp Water Temp Dewpoint Dewpoint Depression Visibility Wind Speed Wind Dir Waves Ship Positions
date/time (UTC)wind fromknots sea level pressurealtimeterstation pressurevisibilityair tempwater tempwave heightnotes
2020-Jan-25 14:03 071 3 gusting 8 5.0
2020-Jan-25 13:47 104 4 gusting 8 4.4
2020-Jan-25 13:31 126 2 gusting 6 4.4
2020-Jan-25 13:17 038 3 gusting 6 4.4
2020-Jan-25 13:02 070 3 gusting 10 3.9
2020-Jan-25 12:46 086 4 gusting 8 3.9
2020-Jan-25 12:31 105 3 gusting 8 3.3
2020-Jan-25 12:16 073 2 gusting 4 2.8
2020-Jan-25 12:01 070 0 gusting 3 2.2
2020-Jan-25 11:46 082 0 gusting 3 2.2
2020-Jan-25 11:32 068 2.2
2020-Jan-25 11:16 087 1.7
2020-Jan-25 11:01 068 1.7
2020-Jan-25 10:45 089 1.7
2020-Jan-25 10:30 249 1.1
2020-Jan-25 10:16 092 1.1
2020-Jan-25 10:01 074 0.6
2020-Jan-25 09:46 069 0.6
2020-Jan-25 09:30 091 0.6
2020-Jan-25 09:15 104 -0.0
2020-Jan-25 09:00 358 -0.0
2020-Jan-25 08:45 008 -0.0
2020-Jan-25 08:30 355 -0.0
2020-Jan-25 08:15 359 0.6
2020-Jan-25 08:00 346 0.6
2020-Jan-25 07:45 339 0.6
2020-Jan-25 07:30 339 0.6
2020-Jan-25 07:15 075 0.6
2020-Jan-25 07:00 091 1.1
2020-Jan-25 06:47 079 1.1
2020-Jan-25 06:31 079 1.1
2020-Jan-25 06:17 078 1.1
2020-Jan-25 06:02 105 1.1
2020-Jan-25 05:47 074 1.1
2020-Jan-25 05:31 063 1.1
2020-Jan-25 05:16 085 0 gusting 2 1.7
2020-Jan-25 05:02 068 1.7
2020-Jan-25 04:46 068 1.7
2020-Jan-25 04:32 086 1.7
2020-Jan-25 04:17 095 1.7
2020-Jan-25 04:01 076 2.2
2020-Jan-25 03:46 103 2.2
2020-Jan-25 03:31 077 2.2
2020-Jan-25 03:17 094 1.7
2020-Jan-25 03:02 111 1.7
2020-Jan-25 02:46 077 1.7
2020-Jan-25 02:31 083 1.7
2020-Jan-25 02:16 084 1.1
2020-Jan-25 02:01 348 1.1
2020-Jan-25 01:47 093 1.1
2020-Jan-25 01:31 091 1.1
2020-Jan-25 01:16 071 1.1
2020-Jan-25 01:01 087 1.1
2020-Jan-25 00:45 087 1.7
2020-Jan-25 00:32 086 1.7
2020-Jan-25 00:15 086 2.2
2020-Jan-25 00:00 097 2.2
2020-Jan-24 23:46 024 2.2
2020-Jan-24 23:31 091 2.8
2020-Jan-24 23:17 092 2.8
2020-Jan-24 23:01 090 3.3
2020-Jan-24 22:46 090 3.9
2020-Jan-24 22:31 091 4.4
2020-Jan-24 22:16 348 5.0
2020-Jan-24 22:00 061 5.6
2020-Jan-24 21:45 072 5.6
2020-Jan-24 21:31 274 6.7
2020-Jan-24 21:16 070 6.7
2020-Jan-24 21:01 075 7.2
2020-Jan-24 20:45 057 2 gusting 6 7.8
2020-Jan-24 20:30 071 2 gusting 6 8.3
2020-Jan-24 20:15 106 3 gusting 7 8.3
2020-Jan-24 20:00 080 3 gusting 6 8.9
2020-Jan-24 19:45 082 0 gusting 5 9.4
2020-Jan-24 19:31 104 3 gusting 6 9.4
2020-Jan-24 19:15 119 0 gusting 6 9.4
2020-Jan-24 19:02 063 8.9
2020-Jan-24 18:45 049 8.3
2020-Jan-24 18:31 066 0 gusting 4 8.3
2020-Jan-24 18:16 097 8.9
2020-Jan-24 18:00 291 0 gusting 3 8.9
2020-Jan-24 17:45 265 8.9
2020-Jan-24 17:30 043 8.9
2020-Jan-24 17:15 294 8.3
2020-Jan-24 17:00 114 7.8
2020-Jan-24 16:45 291 7.8
2020-Jan-24 16:17 091 6.7
2020-Jan-24 16:02 095 6.1
2020-Jan-24 15:46 068 6.1
2020-Jan-24 15:31 273 5.6
2020-Jan-24 15:17 301 5.0
2020-Jan-24 15:01 102 4.4
2020-Jan-24 14:47 056 3.9
2020-Jan-24 14:31 078 3.9
2020-Jan-24 14:16 093 3.3
2020-Jan-24 14:00 274 2.8
2020-Jan-24 13:46 263 1.7
2020-Jan-24 13:30 299 1.1
2020-Jan-24 13:17 283 -0.0
2020-Jan-24 13:01 318 -0.6
2020-Jan-24 12:45 259 -1.7
2020-Jan-24 12:30 259 -1.7
2020-Jan-24 12:15 259 -1.7
2020-Jan-24 12:00 259 -1.7
2020-Jan-24 11:45 258 -1.7
2020-Jan-24 11:30 259 -1.7
2020-Jan-24 11:15 259 -1.7
2020-Jan-24 11:00 259 -1.1
2020-Jan-24 10:45 259 -1.1
2020-Jan-24 10:17 259 -1.1
2020-Jan-24 10:02 260 -1.1
2020-Jan-24 09:46 260 -1.1
2020-Jan-24 09:32 260 -1.1
2020-Jan-24 09:17 257 -1.1
2020-Jan-24 09:02 254 -1.1
2020-Jan-24 08:46 253 -1.1
2020-Jan-24 08:31 255 -1.1
2020-Jan-24 08:17 253 -1.1
2020-Jan-24 08:01 255 -1.1
2020-Jan-24 07:47 253 -0.6
2020-Jan-24 07:32 253 -0.6
2020-Jan-24 07:17 255 -0.6
2020-Jan-24 07:02 254 -0.0
2020-Jan-24 06:47 243 -0.6
2020-Jan-24 06:31 243 -0.6
2020-Jan-24 06:17 243 -0.6
2020-Jan-24 06:01 243 -0.6
2020-Jan-24 05:46 243 -1.1
2020-Jan-24 05:31 243 -0.6
2020-Jan-24 05:16 243 -0.0
2020-Jan-24 05:00 243 -0.0
2020-Jan-24 04:45 243 -0.0
2020-Jan-24 04:31 243 -0.0
2020-Jan-24 04:15 243 0.6
2020-Jan-24 04:00 262 0.6
2020-Jan-24 03:46 261 0.6
2020-Jan-24 03:30 260 0.6
2020-Jan-24 03:15 259 0.6
2020-Jan-24 03:00 260 -0.0
2020-Jan-24 02:47 262 0.6
2020-Jan-24 02:30 261 0.6
2020-Jan-24 02:16 266 1.1
2020-Jan-24 02:01 266 0.6
2020-Jan-24 01:45 266 -0.0
2020-Jan-24 01:30 266 -0.0
2020-Jan-24 01:16 266 0.6
2020-Jan-24 01:00 266 0.6
2020-Jan-24 00:45 257 1.1
2020-Jan-24 00:30 243 1.1
2020-Jan-24 00:16 243 1.7
2020-Jan-24 00:00 238 1.7
2020-Jan-23 23:45 246 2.2
2020-Jan-23 23:30 256 2.2
2020-Jan-23 23:15 262 2.2
2020-Jan-23 23:00 261 2.2
2020-Jan-23 22:45 261 2.2
2020-Jan-23 22:15 267 2.8
2020-Jan-23 22:00 267 3.3
2020-Jan-23 21:45 263 3.9
2020-Jan-23 21:30 273 4.4
2020-Jan-23 21:15 269 5.0
2020-Jan-23 21:00 285 5.6
2020-Jan-23 20:45 241 6.1
2020-Jan-23 20:30 251 6.7
2020-Jan-23 20:15 269 0 gusting 1 6.7
2020-Jan-23 20:00 256 7.2
2020-Jan-23 19:45 238 1 gusting 3 7.8
2020-Jan-23 19:30 248 7.8
2020-Jan-23 19:15 030 7.2
2020-Jan-23 19:01 207 7.2
2020-Jan-23 19:00 276 7.2
2020-Jan-23 18:46 227 7.2
2020-Jan-23 18:32 219 7.8
2020-Jan-23 18:16 256 0 gusting 5 7.2
2020-Jan-23 18:02 269 1 gusting 5 7.2
2020-Jan-23 17:48 283 0 gusting 5 6.7
2020-Jan-23 17:32 274 2 gusting 6 6.7
2020-Jan-23 17:17 269 1 gusting 5 6.1
2020-Jan-23 17:02 262 1 gusting 6 6.1
2020-Jan-23 16:47 300 6.1
2020-Jan-23 16:32 269 5.6
2020-Jan-23 16:16 253 2 gusting 4 5.0
2020-Jan-23 16:00 251 1 gusting 6 4.4
2020-Jan-23 15:45 052 4.4
2020-Jan-23 15:30 255 1 gusting 6 3.9
2020-Jan-23 15:16 276 3.3
2020-Jan-23 15:00 273 0 gusting 7 3.3
2020-Jan-23 14:45 277 0 gusting 3 2.8
2020-Jan-23 14:30 256 1.7
2020-Jan-23 14:15 240 1.1
2020-Jan-23 14:00 239 0.6